Location: Unspecified
(0.0000°N, 0.0000°E)
Time: 07:27:02
(UTC+00:00)

Tiros 1 despin weight - Pass Details

Date: 07 October 2023
Orbit: 583 x 627 km, 48.2° (Epoch: 05 December)

Event Time Altitude Azimuth Distance (km) Brightness Sun altitude
Rises 00:38:52 0° 351° (N) 2,787 - -76.2°
Reaches altitude 10° 00:42:02 10° 16° (NNE) 1,887 - -75.5°
Maximum altitude 00:44:27 15° 50° (NE) 1,607 - -74.9°
Drops below altitude 10° 00:46:52 10° 84° (E) 1,889 - -74.4°
Sets 00:50:02 0° 108° (ESE) 2,793 - -73.6°
